Weather History for Granada, Spain

Change the Weather History Date:

Saturday, September 29, 2012

  Actual Average Record
Temperature  
Mean Temperature 60 °F -  
Max Temperature 66 °F 72 °F 91 °F (1996)
Min Temperature 53 °F 48 °F 46 °F (2010)
Degree Days  
Heating Degree Days 6    
Growing Degree Days 10 (Base 50)    
Moisture  
Dew Point 57 °F    
Average Humidity 88    
Maximum Humidity 100    
Minimum Humidity 66    
Precipitation  
Precipitation 0.16 in - - ()
Sea Level Pressure  
Sea Level Pressure 29.95 in    
Wind  
Wind Speed 1 mph ()    
Max Wind Speed 7 mph    
Max Gust Speed -    
Visibility 5.5 miles    
Events Rain    
Averages and records for this station are not official NWS values.
T = Trace of Precipitation, MM = Missing Value Source: Averaged Metar Reports

Daily Weather History Graph

Daily Weather History Graph

Search for Another Location

Airport:

Trip Planner

Search our weather history database for the weather conditions in past years. The results will help you decide how hot, cold, wet, or windy it might be!

Date:

Astronomy

Sep. 29, 2012 Rise Set
Actual Time 8:09 AM CEST 8:01 PM CEST
Civil Twilight 7:43 AM CEST 8:26 PM CEST
Nautical Twilight 7:12 AM CEST 8:57 PM CEST
Astronomical Twilight 6:42 AM CEST 9:27 PM CEST
Moon 7:27 PM CEST (9/29) 7:25 AM CEST (9/29)
Length of Visible Light 12h 43m
Length of Day
11h 51m
Waxing Gibbous, 99% of the Moon is Illuminated
Sep 29
Waxing Gibbous
Sep 30
Full
Oct 8
Last Quarter
Oct 15
New
Oct 22
First Quarter

Hourly Weather History & Observations

Time (CEST) Temp. Dew Point Humidity Pressure Visibility Wind Dir Wind Speed Gust Speed Precip Events Conditions
2:00 AM 54 °F 52 °F 90% 29.91 in 5 mi Calm Calm - -   Mist
6:00 AM 55.4 °F 55.4 °F 100% 29.89 in 5.0 mi Calm Calm - N/A   Mostly Cloudy
6:30 AM 55.4 °F 55.4 °F 100% 29.89 in 5.0 mi Calm Calm - N/A   Mostly Cloudy
7:00 AM 55.4 °F 55.4 °F 100% 29.89 in 3.7 mi Calm Calm - N/A Rain Light Rain
7:30 AM 57.2 °F 55.4 °F 94% 29.92 in 3.7 mi Calm Calm - N/A Rain Light Rain
8:00 AM 55 °F 53 °F 90% 29.90 in 4 mi Calm Calm - - Rain Rain
8:00 AM 57.2 °F 55.4 °F 94% 29.92 in 3.7 mi Calm Calm - N/A Rain Rain
8:30 AM 57.2 °F 55.4 °F 94% 29.92 in 3.7 mi Variable 1.2 mph - N/A Rain Rain
9:00 AM 57.2 °F 55.4 °F 94% 29.92 in 3.7 mi Calm Calm - N/A Rain Rain
9:30 AM 57.2 °F 55.4 °F 94% 29.92 in 3.7 mi Calm Calm - N/A Rain Rain
10:00 AM 57.2 °F 57.2 °F 100% 29.95 in 3.7 mi Variable 1.2 mph - N/A Rain Rain
10:30 AM 57.2 °F 57.2 °F 100% 29.95 in 3.7 mi Calm Calm - N/A Rain Rain
11:00 AM 59.0 °F 55.4 °F 88% 29.95 in 3.7 mi Calm Calm - N/A Rain Rain
11:30 AM 59.0 °F 57.2 °F 94% 29.95 in 6.2 mi Calm Calm - N/A Rain Rain
12:00 PM 59.0 °F 57.2 °F 94% 29.95 in 6.2 mi Variable 2.3 mph - N/A Rain Rain
12:20 PM 59.0 °F 57.2 °F 94% 29.95 in 2.5 mi Variable 2.3 mph - N/A Rain Rain
12:30 PM 59.0 °F 57.2 °F 94% 29.95 in 4.3 mi Variable 1.2 mph - N/A Rain Rain
1:30 PM 60.8 °F 57.2 °F 88% 29.95 in 6.2 mi Calm Calm - N/A   Scattered Clouds
2:00 PM 62 °F 53 °F 66% 29.91 in 9 mi West 3.5 mph - -   Partly Cloudy
2:00 PM 62.6 °F 55.4 °F 77% 29.95 in 6.2 mi West 3.5 mph - N/A   Scattered Clouds
2:30 PM 66.2 °F 59.0 °F 78% 29.95 in 6.2 mi Variable 2.3 mph - N/A   Scattered Clouds
3:00 PM 66.2 °F 55.4 °F 68% 29.95 in 6.2 mi Variable 1.2 mph - N/A   Scattered Clouds
3:30 PM 64.4 °F 57.2 °F 77% 29.95 in 6.2 mi WNW 4.6 mph - N/A   Scattered Clouds
4:30 PM 62.6 °F 57.2 °F 82% 29.95 in 6.2 mi NE 5.8 mph - N/A   Scattered Clouds
5:00 PM 64.4 °F 57.2 °F 77% 29.95 in 6.2 mi NE 3.5 mph - N/A   Scattered Clouds
5:30 PM 64.4 °F 59.0 °F 83% 29.95 in 6.2 mi Variable 2.3 mph - N/A   Scattered Clouds
6:00 PM 64.4 °F 57.2 °F 77% 29.95 in 6.2 mi West 3.5 mph - N/A   Scattered Clouds
6:30 PM 62.6 °F 59.0 °F 88% 29.95 in 6.2 mi West 6.9 mph - N/A   Scattered Clouds
7:00 PM 62.6 °F 57.2 °F 82% 29.98 in 6.2 mi West 5.8 mph - N/A   Scattered Clouds
7:30 PM 62.6 °F 57.2 °F 82% 29.98 in 6.2 mi West 5.8 mph - N/A   Scattered Clouds
8:00 PM 61 °F 54 °F 73% 29.96 in 9 mi West 4.6 mph - -   Mostly Cloudy
8:00 PM 62.6 °F 57.2 °F 82% 29.98 in 6.2 mi West 3.5 mph - N/A   Scattered Clouds
8:30 PM 60.8 °F 57.2 °F 88% 30.01 in 6.2 mi Variable 2.3 mph - N/A   Scattered Clouds
9:00 PM 60.8 °F 57.2 °F 88% 30.01 in 6.2 mi Variable 2.3 mph - N/A   Scattered Clouds
9:30 PM 60.8 °F 59.0 °F 94% 30.01 in 6.2 mi Variable 2.3 mph - N/A   Scattered Clouds
10:00 PM 60.8 °F 59.0 °F 94% 30.04 in 6.2 mi Calm Calm - N/A   Scattered Clouds
10:30 PM 60.8 °F 59.0 °F 94% 30.04 in 6.2 mi Calm Calm - N/A   Scattered Clouds
11:00 PM 59.0 °F 59.0 °F 100% 30.04 in 6.2 mi Calm Calm - N/A   Scattered Clouds